| time (UTC) | temp F | wind direction | speed knots | gust knots | rain 1hr in | rain 24hr in | rain mn in | humidity % | barometer mb |
| 20260504081957 | 44 | 144 | 0.0 | 0.0 | 0.00 | 0.00 | 0.00 | 85 | 1013.5 |
| 20260504081455 | 44 | 144 | 0.0 | 0.0 | 0.00 | 0.00 | 0.00 | 85 | 1013.5 |
| 20260504080333 | 44 | 144 | 0.0 | 0.0 | 0.00 | 0.00 | 0.00 | 85 | 1013.6 |
| 20260504070337 | 42 | 144 | 0.0 | 0.0 | 0.00 | 0.00 | 0.00 | 85 | 1013.7 |
| 20260504070332 | 42 | 144 | 0.0 | 0.0 | 0.00 | 0.00 | 0.00 | 84 | 1013.7 |
| 20260504050330 | 41 | 144 | 0.0 | 0.0 | 0.00 | 0.00 | 0.00 | 79 | 1014.2 |
| 20260504045829 | 41 | 144 | 0.0 | 0.0 | 0.00 | 0.00 | 0.00 | 78 | 1014.3 |
| 20260504045330 | 41 | 144 | 0.0 | 0.0 | 0.00 | 0.00 | 0.00 | 77 | 1014.3 |
| 20260504044828 | 42 | 144 | 0.0 | 0.0 | 0.00 | 0.00 | 0.00 | 77 | 1014.3 |
| 20260504044328 | 42 | 144 | 0.0 | 0.0 | 0.00 | 0.00 | 0.00 | 77 | 1014.2 |
| 20260504043835 | 43 | 144 | 0.0 | 0.0 | 0.00 | 0.00 | 0.00 | 75 | 1014.2 |
| 20260504043829 | 42 | 144 | 0.0 | 0.0 | 0.00 | 0.00 | 0.00 | 76 | 1014.2 |
| 20260504042828 | 43 | 144 | 0.0 | 0.0 | 0.00 | 0.00 | 0.00 | 75 | 1014.2 |
| 20260504042328 | 44 | 144 | 0.0 | 0.0 | 0.00 | 0.00 | 0.00 | 74 | 1014.0 |
| 20260504041834 | 45 | 144 | 0.0 | 0.9 | 0.00 | 0.00 | 0.00 | 70 | 1014.1 |
| 20260504041828 | 45 | 144 | 0.0 | 0.0 | 0.00 | 0.00 | 0.00 | 71 | 1014.1 |
| 20260504040828 | 45 | 144 | 0.0 | 2.6 | 0.00 | 0.00 | 0.00 | 71 | 1014.1 |
| 20260504040329 | 44 | 151 | 0.9 | 2.6 | 0.00 | 0.00 | 0.00 | 72 | 1014.1 |
| 20260504035828 | 44 | 138 | 0.0 | 0.9 | 0.00 | 0.00 | 0.00 | 72 | 1014.0 |
| 20260504035327 | 44 | 145 | 0.0 | 0.0 | 0.00 | 0.00 | 0.00 | 72 | 1014.0 |
| 20260504034832 | 44 | 145 | 0.0 | 0.0 | 0.00 | 0.00 | 0.00 | 72 | 1014.0 |
| 20260504034826 | 44 | 145 | 0.0 | 0.0 | 0.00 | 0.00 | 0.00 | 72 | 1013.9 |
| 20260504034446 | 44 | 145 | 0.0 | 0.9 | 0.00 | 0.00 | 0.00 | 73 | 1013.9 |
| 20260504033332 | 44 | 145 | 0.0 | 0.0 | 0.00 | 0.00 | 0.00 | 73 | 1013.8 |
| 20260504033327 | 43 | 145 | 0.0 | 0.9 | 0.00 | 0.00 | 0.00 | 74 | 1014.0 |
| 20260504032328 | 44 | 145 | 0.0 | 0.0 | 0.00 | 0.00 | 0.00 | 71 | 1013.7 |
| 20260504031828 | 44 | 145 | 0.0 | 0.0 | 0.00 | 0.00 | 0.00 | 70 | 1013.8 |
| 20260504031326 | 44 | 145 | 0.0 | 0.0 | 0.00 | 0.00 | 0.00 | 69 | 1013.8 |
| 20260504030827 | 44 | 145 | 0.0 | 0.0 | 0.00 | 0.00 | 0.00 | 70 | 1013.7 |
| 20260504030327 | 44 | 145 | 0.0 | 0.9 | 0.00 | 0.00 | 0.00 | 71 | 1013.7 |
| 20260504025827 | 44 | 145 | 0.0 | 0.9 | 0.00 | 0.00 | 0.00 | 72 | 1013.7 |
| 20260504025326 | 44 | 145 | 0.0 | 0.9 | 0.00 | 0.00 | 0.00 | 71 | 1013.6 |
| 20260504024826 | 44 | 145 | 0.0 | 0.0 | 0.00 | 0.00 | 0.00 | 69 | 1013.6 |
| 20260504024327 | 44 | 145 | 0.0 | 0.0 | 0.00 | 0.00 | 0.00 | 69 | 1013.6 |
| 20260504023825 | 45 | 145 | 0.0 | 0.0 | 0.00 | 0.00 | 0.00 | 69 | 1013.6 |
| 20260504023330 | 46 | 145 | 0.0 | 0.9 | 0.00 | 0.00 | 0.00 | 67 | 1013.4 |
| 20260504023325 | 45 | 145 | 0.0 | 0.9 | 0.00 | 0.00 | 0.00 | 68 | 1013.5 |
| 20260504022331 | 46 | 145 | 0.0 | 0.0 | 0.00 | 0.00 | 0.00 | 67 | 1013.4 |
| 20260504022325 | 46 | 145 | 0.0 | 0.9 | 0.00 | 0.00 | 0.00 | 66 | 1013.4 |
| 20260504021325 | 46 | 145 | 0.0 | 0.9 | 0.00 | 0.00 | 0.00 | 67 | 1013.4 |
| 20260504020826 | 46 | 145 | 0.0 | 0.9 | 0.00 | 0.00 | 0.00 | 67 | 1013.4 |
| 20260504020326 | 47 | 145 | 0.9 | 0.9 | 0.00 | 0.00 | 0.00 | 65 | 1013.5 |
| 20260504015825 | 47 | 145 | 0.0 | 0.0 | 0.00 | 0.00 | 0.00 | 63 | 1013.4 |
| 20260504015329 | 48 | 145 | 0.0 | 0.0 | 0.00 | 0.00 | 0.00 | 60 | 1013.3 |
| 20260504015324 | 48 | 145 | 0.0 | 0.0 | 0.00 | 0.00 | 0.00 | 60 | 1013.4 |
| 20260504014444 | 49 | 145 | 0.0 | 0.9 | 0.00 | 0.00 | 0.00 | 57 | 1013.2 |
| 20260504014331 | 49 | 145 | 0.0 | 0.0 | 0.00 | 0.00 | 0.00 | 57 | 1013.2 |
| 20260504014326 | 49 | 145 | 0.0 | 0.0 | 0.00 | 0.00 | 0.00 | 58 | 1013.3 |
| 20260504012824 | 50 | 145 | 0.0 | 0.9 | 0.00 | 0.00 | 0.00 | 56 | 1013.1 |
| 20260504012327 | 51 | 145 | 0.0 | 0.9 | 0.00 | 0.00 | 0.00 | 53 | 1013.1 |
| 20260504012323 | 50 | 145 | 0.9 | 0.9 | 0.00 | 0.00 | 0.00 | 54 | 1013.1 |
| 20260504011323 | 51 | 145 | 0.0 | 0.9 | 0.00 | 0.00 | 0.00 | 52 | 1013.1 |
| 20260504010830 | 51 | 145 | 0.9 | 0.9 | 0.00 | 0.00 | 0.00 | 53 | 1013.1 |
| 20260504010823 | 51 | 145 | 0.0 | 0.9 | 0.00 | 0.00 | 0.00 | 52 | 1013.0 |
| 20260504005828 | 52 | 145 | 0.0 | 0.9 | 0.00 | 0.00 | 0.00 | 50 | 1013.0 |
| 20260504005824 | 52 | 145 | 0.0 | 0.0 | 0.00 | 0.00 | 0.00 | 51 | 1013.0 |
| 20260504004826 | 53 | 145 | 0.9 | 0.9 | 0.00 | 0.00 | 0.00 | 48 | 1013.0 |
| 20260504004822 | 53 | 145 | 0.0 | 0.9 | 0.00 | 0.00 | 0.00 | 49 | 1012.9 |
| 20260504003824 | 53 | 145 | 0.0 | 1.7 | 0.00 | 0.00 | 0.00 | 48 | 1012.9 |
| 20260504003323 | 54 | 145 | 0.0 | 1.7 | 0.00 | 0.00 | 0.00 | 47 | 1012.9 |
| 20260504002823 | 55 | 154 | 0.0 | 0.9 | 0.00 | 0.00 | 0.00 | 44 | 1012.9 |
| 20260504002322 | 55 | 154 | 0.0 | 0.9 | 0.00 | 0.00 | 0.00 | 43 | 1012.8 |
| 20260504001822 | 56 | 157 | 0.9 | 0.9 | 0.00 | 0.00 | 0.00 | 43 | 1012.8 |
| 20260504001322 | 56 | 135 | 0.0 | 0.9 | 0.00 | 0.00 | 0.00 | 42 | 1012.8 |
| 20260504000822 | 57 | 135 | 0.0 | 0.9 | 0.00 | 0.00 | 0.00 | 41 | 1012.7 |
| 20260504000323 | 57 | 135 | 0.0 | 0.9 | 0.00 | 0.00 | 0.00 | 39 | 1012.7 |
| 20260503235821 | 58 | 120 | 0.0 | 0.0 | 0.00 | 0.00 | 0.00 | 38 | 1012.7 |
| 20260503235326 | 58 | 118 | 0.0 | 0.0 | 0.00 | 0.00 | 0.00 | 37 | 1012.5 |
| 20260503235322 | 58 | 118 | 0.0 | 0.0 | 0.00 | 0.00 | 0.00 | 37 | 1012.6 |
| 20260503234323 | 59 | 117 | 0.0 | 0.0 | 0.00 | 0.00 | 0.00 | 37 | 1012.5 |
| 20260503233822 | 59 | 195 | 0.0 | 0.0 | 0.00 | 0.00 | 0.00 | 37 | 1012.6 |
| 20260503233325 | 60 | 257 | 0.0 | 1.7 | 0.00 | 0.00 | 0.00 | 34 | 1012.5 |
| 20260503233321 | 60 | 257 | 0.0 | 0.0 | 0.00 | 0.00 | 0.00 | 36 | 1012.5 |
| 20260503232320 | 61 | 341 | 0.0 | 1.7 | 0.00 | 0.00 | 0.00 | 34 | 1012.4 |
| 20260503231821 | 61 | 341 | 0.0 | 1.7 | 0.00 | 0.00 | 0.00 | 33 | 1012.4 |
| 20260503231441 | 63 | 286 | 0.0 | 1.7 | 0.00 | 0.00 | 0.00 | 32 | 1012.3 |
| 20260503231327 | 62 | 233 | 0.0 | 1.7 | 0.00 | 0.00 | 0.00 | 32 | 1012.3 |
| 20260503231322 | 61 | 327 | 0.0 | 1.7 | 0.00 | 0.00 | 0.00 | 33 | 1012.3 |
| 20260503230441 | 63 | 90 | 0.0 | 0.9 | 0.00 | 0.00 | 0.00 | 32 | 1012.2 |
| 20260503225939 | 64 | 85 | 0.0 | 1.7 | 0.00 | 0.00 | 0.00 | 31 | 1012.2 |
| 20260503224821 | 65 | 233 | 0.0 | 4.3 | 0.00 | 0.00 | 0.00 | 30 | 1012.2 |
| 20260503224320 | 65 | 227 | 0.9 | 4.3 | 0.00 | 0.00 | 0.00 | 29 | 1012.1 |
| 20260503223820 | 65 | 141 | 0.0 | 1.7 | 0.00 | 0.00 | 0.00 | 29 | 1012.2 |
| 20260503223321 | 66 | 152 | 0.0 | 2.6 | 0.00 | 0.00 | 0.00 | 29 | 1012.1 |
| 20260503222820 | 66 | 341 | 0.0 | 4.3 | 0.00 | 0.00 | 0.00 | 30 | 1012.2 |
| 20260503222321 | 65 | 241 | 0.0 | 6.1 | 0.00 | 0.00 | 0.00 | 30 | 1012.3 |
| 20260503221819 | 65 | 58 | 0.0 | 6.1 | 0.00 | 0.00 | 0.00 | 30 | 1012.4 |
| 20260503221324 | 66 | 312 | 0.0 | 3.5 | 0.00 | 0.00 | 0.00 | 30 | 1012.4 |
| 20260503221319 | 65 | 0 | 0.0 | 4.3 | 0.00 | 0.00 | 0.00 | 29 | 1012.4 |
| 20260503220941 | 66 | 329 | 0.9 | 5.2 | 0.00 | 0.00 | 0.00 | 29 | 1012.3 |
| 20260503220318 | 66 | 0 | 1.7 | 3.5 | 0.00 | 0.00 | 0.00 | 30 | 1012.4 |
| 20260503215324 | 66 | 251 | 0.9 | 4.3 | 0.00 | 0.00 | 0.00 | 29 | 1012.3 |
| 20260503215319 | 66 | 158 | 0.9 | 5.2 | 0.00 | 0.00 | 0.00 | 29 | 1012.5 |
| 20260503214818 | 66 | 121 | 0.0 | 4.3 | 0.00 | 0.00 | 0.00 | 30 | 1012.4 |
| 20260503213818 | 66 | 145 | 0.9 | 4.3 | 0.00 | 0.00 | 0.00 | 31 | 1012.4 |
| 20260503213323 | 66 | 165 | 0.9 | 3.5 | 0.00 | 0.00 | 0.00 | 29 | 1012.5 |
| 20260503213318 | 66 | 252 | 0.9 | 4.3 | 0.00 | 0.00 | 0.00 | 29 | 1012.5 |
| 20260503212318 | 67 | 245 | 0.9 | 3.5 | 0.00 | 0.00 | 0.00 | 30 | 1012.5 |
| 20260503211818 | 66 | 157 | 0.0 | 3.5 | 0.00 | 0.00 | 0.00 | 33 | 1012.5 |
| 20260503211318 | 66 | 327 | 0.9 | 4.3 | 0.00 | 0.00 | 0.00 | 31 | 1012.4 |
| 20260503210818 | 65 | 111 | 0.9 | 4.3 | 0.00 | 0.00 | 0.00 | 31 | 1012.5 |
| 20260503210319 | 65 | 228 | 0.9 | 5.2 | 0.00 | 0.00 | 0.00 | 29 | 1012.4 |
| 20260503205818 | 65 | 341 | 1.7 | 5.2 | 0.00 | 0.00 | 0.00 | 29 | 1012.5 |
| 20260503205317 | 66 | 354 | 1.7 | 5.2 | 0.00 | 0.00 | 0.00 | 28 | 1012.5 |
| 20260503204818 | 66 | 326 | 1.7 | 5.2 | 0.00 | 0.00 | 0.00 | 30 | 1012.6 |
| 20260503204322 | 65 | 148 | 1.7 | 4.3 | 0.00 | 0.00 | 0.00 | 32 | 1012.6 |
| 20260503204317 | 65 | 230 | 0.9 | 5.2 | 0.00 | 0.00 | 0.00 | 28 | 1012.6 |
| 20260503203817 | 65 | 71 | 0.9 | 5.2 | 0.00 | 0.00 | 0.00 | 33 | 1012.6 |
| 20260503203435 | 65 | 255 | 1.7 | 4.3 | 0.00 | 0.00 | 0.00 | 29 | 1012.7 |
| 20260503202937 | 65 | 285 | 1.7 | 5.2 | 0.00 | 0.00 | 0.00 | 33 | 1012.6 |
| 20260503202318 | 65 | 314 | 0.9 | 5.2 | 0.00 | 0.00 | 0.00 | 29 | 1012.5 |
| 20260503201317 | 65 | 0 | 0.0 | 3.5 | 0.00 | 0.00 | 0.00 | 31 | 1012.7 |
| 20260503200817 | 65 | 6 | 0.9 | 3.5 | 0.00 | 0.00 | 0.00 | 31 | 1012.9 |
| 20260503200316 | 66 | 145 | 0.0 | 3.5 | 0.00 | 0.00 | 0.00 | 37 | 1012.9 |
| 20260503195816 | 65 | 141 | 0.9 | 4.3 | 0.00 | 0.00 | 0.00 | 32 | 1013.0 |
| 20260503195316 | 65 | 193 | 0.9 | 4.3 | 0.00 | 0.00 | 0.00 | 34 | 1013.2 |
| 20260503194817 | 65 | 145 | 0.0 | 8.7 | 0.00 | 0.00 | 0.00 | 32 | 1013.3 |
| 20260503194316 | 64 | 337 | 1.7 | 8.7 | 0.00 | 0.00 | 0.00 | 32 | 1013.3 |
| 20260503193816 | 64 | 18 | 0.9 | 6.1 | 0.00 | 0.00 | 0.00 | 33 | 1013.4 |
| 20260503193316 | 64 | 343 | 1.7 | 6.1 | 0.00 | 0.00 | 0.00 | 32 | 1013.5 |
| 20260503192816 | 64 | 149 | 0.0 | 5.2 | 0.00 | 0.00 | 0.00 | 38 | 1013.5 |
| 20260503192315 | 63 | 320 | 1.7 | 5.2 | 0.00 | 0.00 | 0.00 | 32 | 1013.6 |
| 20260503191815 | 63 | 309 | 1.7 | 6.1 | 0.00 | 0.00 | 0.00 | 32 | 1013.8 |
| 20260503191315 | 62 | 312 | 1.7 | 6.1 | 0.00 | 0.00 | 0.00 | 33 | 1013.8 |
| 20260503190816 | 62 | 353 | 0.0 | 6.1 | 0.00 | 0.00 | 0.00 | 39 | 1013.8 |
| 20260503190315 | 62 | 237 | 0.9 | 12.2 | 0.00 | 0.00 | 0.00 | 34 | 1013.9 |
| 20260503185815 | 62 | 116 | 2.6 | 12.2 | 0.00 | 0.00 | 0.00 | 35 | 1013.8 |
| 20260503185315 | 62 | 213 | 0.9 | 8.7 | 0.00 | 0.00 | 0.00 | 32 | 1014.0 |
| 20260503184820 | 62 | 309 | 3.5 | 8.7 | 0.00 | 0.00 | 0.00 | 33 | 1014.1 |
| 20260503184815 | 62 | 255 | 0.0 | 8.7 | 0.00 | 0.00 | 0.00 | 35 | 1013.9 |
| 20260503183817 | 61 | 35 | 1.7 | 8.7 | 0.00 | 0.00 | 0.00 | 33 | 1014.1 |
| 20260503183314 | 61 | 326 | 0.9 | 8.7 | 0.00 | 0.00 | 0.00 | 36 | 1014.2 |
| 20260503182814 | 61 | 10 | 2.6 | 8.7 | 0.00 | 0.00 | 0.00 | 33 | 1014.2 |
| 20260503182314 | 61 | 336 | 0.9 | 8.7 | 0.00 | 0.00 | 0.00 | 36 | 1014.2 |
| 20260503181819 | 62 | 45 | 1.7 | 6.1 | 0.00 | 0.00 | 0.00 | 33 | 1014.2 |
| 20260503181815 | 61 | 48 | 1.7 | 6.1 | 0.00 | 0.00 | 0.00 | 34 | 1014.1 |
| 20260503181437 | 62 | 295 | 0.9 | 5.2 | 0.00 | 0.00 | 0.00 | 41 | 1014.3 |
| 20260503180320 | 60 | 162 | 0.9 | 5.2 | 0.00 | 0.00 | 0.00 | 37 | 1014.4 |
| 20260503180314 | 61 | 329 | 1.7 | 5.2 | 0.00 | 0.00 | 0.00 | 38 | 1014.2 |
| 20260503175314 | 61 | 341 | 2.6 | 8.7 | 0.00 | 0.00 | 0.00 | 38 | 1014.5 |
| 20260503174813 | 61 | 331 | 1.7 | 8.7 | 0.00 | 0.00 | 0.00 | 37 | 1014.5 |
| 20260503174313 | 60 | 197 | 0.9 | 8.7 | 0.00 | 0.00 | 0.00 | 38 | 1014.6 |
| 20260503173813 | 60 | 337 | 0.9 | 8.7 | 0.00 | 0.00 | 0.00 | 42 | 1014.7 |
| 20260503173314 | 59 | 350 | 1.7 | 7.8 | 0.00 | 0.00 | 0.00 | 41 | 1014.7 |
| 20260503172812 | 59 | 99 | 0.9 | 7.8 | 0.00 | 0.00 | 0.00 | 43 | 1014.7 |
| 20260503172313 | 59 | 244 | 2.6 | 7.8 | 0.00 | 0.00 | 0.00 | 39 | 1014.7 |
| 20260503171814 | 58 | 295 | 1.7 | 7.8 | 0.00 | 0.00 | 0.00 | 40 | 1014.7 |
| 20260503171312 | 58 | 78 | 1.7 | 6.1 | 0.00 | 0.00 | 0.00 | 41 | 1014.6 |
| 20260503170812 | 58 | 241 | 0.9 | 6.1 | 0.00 | 0.00 | 0.00 | 38 | 1014.8 |
| 20260503170312 | 59 | 334 | 2.6 | 6.1 | 0.00 | 0.00 | 0.00 | 40 | 1014.9 |
| 20260503150811 | 53 | 351 | 0.9 | 7.8 | 0.00 | 0.00 | 0.00 | 45 | 1016.0 |
| 20260503150310 | 53 | 66 | 1.7 | 7.8 | 0.00 | 0.00 | 0.00 | 49 | 1015.9 |
| 20260503131307 | 47 | 32 | 2.6 | 9.6 | 0.00 | 0.00 | 0.00 | 57 | 1016.0 |
| 20260503130806 | 47 | 331 | 0.9 | 5.2 | 0.00 | 0.00 | 0.00 | 57 | 1016.1 |
| 20260503130307 | 47 | 350 | 0.9 | 8.7 | 0.00 | 0.00 | 0.00 | 58 | 1016.2 |
| 20260503110805 | 41 | 183 | 0.0 | 1.7 | 0.00 | 0.00 | 0.00 | 68 | 1015.3 |
| 20260503110427 | 0 | 0.0 | 0.0 | 0.00 | 0.00 | 0.00 | 1015.2 | ||
| 20260503100255 | 0 | 0.0 | 0.0 | 0.00 | 0.00 | 0.00 | 1014.2 |